Regional Weather Roundup
Issued by NWS

Home | Current Version | Previous Version | Graphics & Text | Print | Product List | Glossary On
Versions: 1 2 3 4 5 6 7 8 9 10 11 12 13 14 15 16 17 18 19 20 21 22 23 24 25 26 27 28 29 30 31 32 33 34 35 36 37 38 39 40 41 42 43 44 45 46 47 48 49 50
803
ASUS43 KLMK 211902
RWRKY
KENTUCKY REGIONAL WEATHER ROUNDUP
NATIONAL WEATHER SERVICE LOUISVILLE KY
300 PM EDT FRI JUL 21 2017

NOTE "FAIR" INDICATES FEW OR NO CLOUDS BELOW 12,000 FEET
WITH NO SIGNIFICANT WEATHER AND/OR OBSTRUCTIONS TO VISIBILITY.

KYZ001>023-026-027-061>063-070>075-212000-
WESTERN AND SOUTH CENTRAL KENTUCKY

CITY           SKY/WX    TMP DP  RH WIND       PRES   REMARKS
PADUCAH        SUNNY     95  75  52 S5        29.98F HX 107
HENDERSON      SUNNY     95  78  58 S7        29.98F HX 111
OWENSBORO      MOSUNNY   93  77  59 S9        29.99F HX 107
HOPKINSVILLE   SUNNY     93  76  58 W7        30.01F HX 105
BOWLING GREEN  MOSUNNY   95  73  48 W9        30.02F HX 104
GLASGOW        NOT AVBL
$$

KYZ024-025-028>034-038-045-046-053-212000-
NORTH CENTRAL KENTUCKY

CITY           SKY/WX    TMP DP  RH WIND       PRES   REMARKS
LOUISVILLE/SDF CLOUDY    95  75  52 SW10      29.99F HX 107
LOUISVILLE/LOU MOSUNNY   93  75  55 SW7       30.00F HX 104
FORT KNOX      MOSUNNY   92  75  57 SW8       30.00F HX 104
$$

KYZ035>037-039>044-047>052-055>060-089>105-212000-
NORTHEAST KENTUCKY

CITY           SKY/WX    TMP DP  RH WIND       PRES   REMARKS
LEXINGTON      SUNNY     93  70  46 SW12      30.03F HX  99
COVINGTON      CLOUDY    85  75  72 SW6       30.02F HX  93
FRANKFORT      MOSUNNY   93  71  48 SW10      30.01F HX 100
$$

KYZ054-064>069-076>088-106>120-212000-
SOUTHEAST KENTUCKY

CITY           SKY/WX    TMP DP  RH WIND       PRES   REMARKS
JACKSON        CLOUDY    89  73  59 VRB3      30.06F HX  97
LONDON         PTSUNNY   90  68  48 VRB6      30.07F HX  94
SOMERSET       CLOUDY    88  70  55 CALM      30.06F HX  92
MIDDLESBORO    MOSUNNY   90  72  55 CALM      30.07F HX  96
MONTICELLO     CLEAR     92  72  51 VRB5      30.07F HX  99
$$





USA.gov is the U.S. government's official web portal to all federal, state and local government web resources and services.